Location: *
(46.1866°S, 178.5290°W)
Time: 09:23:01
(UTC+00:00)

Cosmos 1461 - Pass Details

Date: 26 September 2021
Orbit: 520 x 642 km, 65.0° (Epoch: 20 October)

Event Time Altitude Azimuth Distance (km) Brightness Sun altitude
Rises 15:33:15 0° 209° (SSW) 2,904 6.5 -21.0°
Reaches altitude 10° 15:36:41 10° 182° (S) 2,021 6.0 -20.5°
Maximum altitude 15:38:56 13° 152° (SSE) 1,817 6.1 -20.1°
Drops below altitude 10° 15:41:12 10° 123° (ESE) 2,043 6.9 -19.7°
Sets 15:44:43 0° 96° (E) 2,961 7.9 -19.2°
